Wind_Speed
15 15 15 14 15 15 15 16 16 15 15 15 16 17 18 19 20 20 19 18 18 18 18 18 18 18 19 19 20 21 21 22 23 23 23 23 23 24 25 25 25 25 24
16 16 15 15 16 16 16 16 16 16 16 16 17 18 19 19 20 19 18 18 18 17 18 18 18 18 18 19 20 21 21 21 21 21 22 22 23 23 23 23 23 23 23
18 17 17 17 17 17 17 17 17 17 17 18 18 19 18 19 19 19 18 18 17 17 17 18 18 19 19 20 20 21 21 21 21 20 21 21 21 22 22 22 23 23 23
19 19 18 18 18 18 18 18 18 17 18 19 19 19 19 19 19 19 19 19 18 18 18 18 18 18 18 19 19 19 19 19 20 20 20 20 20 21 21 21 22 23 24
20 20 19 19 19 19 19 19 19 19 19 19 19 19 20 19 19 19 19 19 18 17 17 17 18 17 17 18 18 18 19 18 18 19 19 19 19 20 20 20 21 22 22
20 20 20 21 21 21 21 21 20 19 19 20 20 20 20 20 19 19 20 19 18 17 17 17 17 16 17 18 18 18 18 17 17 18 18 18 18 19 20 20 21 21 21
20 21 21 21 21 21 20 20 20 20 20 20 20 20 20 20 20 20 19 18 18 18 18 18 16 16 16 17 18 18 17 17 17 18 18 18 18 18 19 19 19 19 20
21 21 21 21 21 21 21 21 21 21 21 21 21 21 20 20 20 20 19 18 18 18 18 18 17 17 17 18 18 18 17 17 17 17 17 17 18 18 18 18 18 18 19
21 21 21 21 21 21 22 22 22 22 22 22 21 21 20 20 20 20 19 19 19 19 18 18 18 17 17 18 18 18 18 18 17 17 17 17 17 17 17 17 18 18 17
23 22 21 22 22 22 22 23 23 23 22 22 22 21 21 20 20 19 19 19 19 19 18 18 18 18 17 17 18 18 17 18 18 17 17 17 17 17 18 18 17 17 17
23 22 22 22 22 22 22 23 23 22 22 22 23 22 21 20 19 19 20 20 19 18 18 18 18 18 18 18 17 17 17 18 18 18 17 17 17 17 18 18 17 17 16
23 23 22 21 21 22 22 22 22 22 22 22 21 21 20 20 20 19 19 19 18 18 18 18 18 19 19 18 17 17 17 17 18 18 17 17 17 17 17 17 16 16 16
24 23 23 22 22 22 21 22 22 22 21 21 21 21 20 20 19 19 19 19 19 19 18 18 18 18 18 18 17 17 17 17 17 17 16 16 16 16 17 16 16 16 16
24 23 22 22 22 22 22 22 22 22 22 21 21 21 20 20 20 20 19 19 20 19 19 19 20 19 19 19 18 18 18 18 17 17 17 17 17 17 17 16 16 16 16
23 22 22 22 22 23 23 23 22 22 23 22 21 20 21 21 21 21 20 21 21 21 20 19 19 19 20 19 19 19 18 18 19 18 18 18 17 17 17 16 16 16 16
22 21 21 22 23 23 24 24 23 23 23 23 23 22 22 22 21 21 21 20 20 20 20 20 20 20 20 19 19 20 20 19 19 19 18 17 17 17 17 16 16 17 17
21 22 22 23 23 23 23 23 23 23 23 22 23 23 22 22 22 21 21 21 20 20 20 20 20 20 20 20 20 20 19 19 19 19 18 18 17 17 18 18 18 17 17
23 23 23 24 24 24 24 24 24 23 23 23 23 23 23 23 23 22 21 21 21 21 21 21 21 21 21 21 20 20 20 20 20 19 18 18 18 18 18 18 18 18 17
24 24 24 24 24 24 24 24 23 23 22 22 23 23 23 23 22 22 21 21 21 21 21 21 22 22 22 21 21 21 21 21 20 20 19 18 18 18 18 18 18 17 17
24 25 25 24 23 23 23 23 23 23 23 22 22 22 22 22 22 22 22 21 21 21 21 22 22 21 21 21 21 21 21 21 21 20 20 19 18 18 18 18 18 18 18
26 26 26 25 24 23 23 22 22 21 21 21 21 21 22 22 22 22 23 22 22 22 22 22 22 22 22 21 21 21 21 22 22 22 21 20 19 19 19 18 17 17 17
26 26 26 26 26 24 24 23 22 22 22 22 22 22 22 22 22 22 22 23 23 22 22 22 22 22 22 22 22 21 21 21 22 22 22 22 22 21 20 19 18 17 17
25 25 25 25 25 24 24 24 23 23 23 22 22 21 22 22 22 22 22 23 23 23 22 22 21 21 21 22 22 22 21 21 20 21 21 21 21 21 20 20 19 20 19
24 24 24 24 24 24 24 24 23 23 23 22 22 21 21 21 21 21 22 22 23 23 23 22 21 21 21 22 22 21 21 21 20 20 20 20 20 20 21 21 21 21 21
24 24 24 24 24 24 23 23 23 22 22 21 21 21 21 21 22 22 22 22 22 22 22 22 22 22 21 22 22 21 21 21 21 21 21 20 20 21 21 20 21 21 21
25 24 24 24 24 24 23 23 22 22 21 20 20 21 21 21 21 22 22 22 23 22 22 23 23 22 22 22 22 21 22 21 21 21 20 21 20 20 20 20 21 22 22
Wind_Direction
281 284 287 291 295 296 294 295 295 296 298 297 298 297 295 294 291 289 286 285 282 280 277 272 269 269 272 272 274 273 273 272 270 269 270 272 272 271 270 271 271 270 270
276 279 283 289 292 294 295 296 297 297 296 297 297 298 297 293 290 288 285 283 282 281 278 273 270 272 275 276 275 275 275 275 271 270 272 272 272 271 271 271 271 271 271
275 276 280 287 289 290 292 293 296 295 295 297 299 299 297 293 290 288 288 286 284 281 278 275 274 274 277 278 277 276 276 275 272 270 271 272 271 272 273 272 272 272 273
274 275 280 285 288 287 288 293 295 296 296 297 297 297 296 292 288 285 286 285 283 281 280 279 278 277 279 279 279 278 277 277 276 273 272 273 273 273 275 274 273 272 272
273 275 280 283 285 286 288 291 291 293 296 297 296 296 296 294 289 285 284 284 282 281 281 280 279 279 279 279 278 280 279 277 276 275 274 274 274 275 278 278 275 272 272
273 275 280 282 283 284 286 286 287 291 294 297 296 296 295 292 290 287 284 282 279 277 278 279 277 277 277 278 278 280 279 277 277 277 276 275 275 276 278 280 279 275 273
272 275 278 280 282 283 283 285 287 289 293 297 297 296 293 290 288 285 285 281 278 279 279 279 276 274 275 278 278 278 277 277 279 280 280 281 279 277 277 281 283 281 278
271 274 278 278 280 281 282 284 286 288 291 294 295 295 294 290 286 283 282 279 278 279 279 279 277 275 274 278 276 276 276 276 279 283 285 283 280 278 277 281 283 282 282
271 274 277 278 278 280 279 282 283 286 289 291 293 293 292 289 285 282 280 278 277 277 281 281 278 276 277 278 275 273 273 274 276 281 285 284 281 277 276 279 282 285 285
271 272 274 277 281 282 280 280 282 284 286 288 290 291 290 287 286 283 279 276 276 275 278 279 279 275 277 279 276 273 274 276 276 279 283 283 281 279 277 279 281 283 284
268 269 270 273 278 281 282 282 283 285 286 288 289 289 290 289 287 284 281 279 278 277 277 277 277 275 277 280 277 272 273 274 275 278 280 282 282 279 278 279 280 281 283
267 268 270 273 276 277 279 282 283 284 285 286 287 286 285 285 284 283 282 280 279 279 277 275 276 276 276 277 275 272 273 275 277 279 279 279 279 278 277 277 278 280 283
267 268 270 272 275 275 277 280 283 283 283 283 283 283 281 283 283 281 279 275 274 275 274 275 276 276 275 275 273 271 273 276 278 279 278 277 278 278 277 276 278 279 281
265 267 269 271 273 275 278 280 281 282 282 280 279 278 278 280 281 280 277 275 273 274 274 275 275 275 276 275 273 272 273 275 276 275 273 275 277 278 276 276 278 280 282
266 268 270 273 275 277 278 279 280 281 280 280 280 279 276 276 279 278 277 274 272 272 272 273 272 272 274 275 274 274 274 274 274 274 273 274 275 275 277 277 277 280 281
269 269 271 273 276 278 280 280 281 281 279 279 277 276 276 276 278 278 276 274 272 271 269 268 270 271 271 271 272 273 274 273 272 271 272 273 273 275 277 277 276 276 279
269 270 273 276 278 280 281 282 283 283 282 281 279 276 275 276 277 275 273 273 272 271 270 270 270 272 272 269 270 270 272 274 272 271 272 272 272 274 275 275 275 276 279
271 272 273 275 278 280 281 282 283 284 282 279 278 279 277 277 276 273 271 270 270 270 270 269 270 271 272 271 270 270 270 271 272 271 272 273 273 276 277 276 275 275 278
271 272 274 277 280 280 280 280 280 282 281 279 278 278 277 277 275 273 272 269 269 270 271 271 270 270 270 269 269 270 269 268 271 271 270 271 273 275 277 276 275 275 278
271 273 274 277 280 279 280 282 282 281 281 281 279 276 272 273 274 274 274 273 270 269 270 272 272 272 271 271 270 270 269 268 269 270 270 271 271 273 274 275 276 275 276
273 274 275 278 280 280 280 282 283 283 282 281 279 276 272 271 272 273 272 273 271 268 268 269 270 270 270 270 270 271 270 267 267 267 268 268 268 269 271 273 274 273 273
272 274 276 277 279 279 279 279 281 282 281 279 278 277 275 274 272 272 273 274 273 270 270 268 268 269 270 269 269 270 270 268 267 266 265 267 267 267 268 271 271 270 271
273 275 276 277 276 277 279 279 280 280 280 278 277 277 278 276 274 273 273 273 272 271 269 268 268 269 269 268 269 270 269 269 268 267 266 268 267 265 267 269 269 269 270
274 275 276 275 275 276 277 278 277 278 278 276 274 276 278 277 274 273 272 272 270 269 268 268 269 269 269 269 268 268 268 267 267 267 267 268 267 268 269 268 268 269 270
273 273 273 274 275 274 274 275 276 277 276 273 272 272 274 276 276 275 274 272 271 268 267 267 268 269 269 269 268 266 266 266 266 267 267 269 270 269 270 270 268 268 270
270 270 270 271 272 271 271 272 273 273 274 274 274 274 275 277 279 277 272 270 269 267 266 266 267 268 268 268 266 265 266 265 265 264 266 267 269 269 269 267 266 266 268
Height
5807 5806 5806 5805 5804 5802 5800 5799 5798 5796 5794 5793 5791 5789 5787 5786 5784 5782 5780 5779 5778 5778 5777 5777 5778 5778 5778 5777 5777 5777 5777 5777 5777 5777 5777 5777 5776 5777 5777 5776 5776 5776 5776
5802 5802 5801 5801 5799 5798 5796 5795 5793 5792 5790 5789 5787 5784 5782 5780 5778 5776 5775 5774 5773 5773 5772 5772 5772 5772 5772 5772 5772 5771 5771 5771 5770 5771 5770 5770 5769 5769 5769 5769 5768 5768 5768
5797 5797 5797 5796 5795 5794 5792 5791 5789 5788 5786 5784 5782 5780 5777 5775 5773 5771 5770 5769 5768 5768 5767 5767 5767 5767 5767 5766 5766 5766 5765 5765 5764 5764 5764 5763 5762 5762 5762 5762 5761 5761 5761
5792 5792 5792 5791 5790 5788 5787 5786 5784 5783 5781 5779 5777 5774 5772 5770 5768 5766 5765 5764 5763 5762 5762 5761 5761 5761 5761 5761 5760 5760 5759 5759 5758 5758 5757 5757 5756 5755 5755 5755 5754 5754 5754
5787 5786 5786 5785 5784 5783 5782 5780 5779 5778 5776 5774 5771 5769 5766 5764 5763 5761 5759 5758 5757 5757 5756 5756 5755 5755 5755 5755 5755 5754 5754 5753 5752 5751 5751 5750 5750 5749 5748 5748 5747 5747 5747
5781 5781 5780 5779 5778 5777 5776 5775 5774 5772 5771 5769 5766 5764 5761 5759 5757 5755 5754 5753 5752 5752 5752 5751 5750 5750 5750 5750 5750 5749 5749 5748 5747 5746 5745 5744 5744 5743 5743 5742 5741 5741 5740
5775 5774 5774 5773 5772 5771 5770 5769 5768 5767 5765 5763 5761 5758 5756 5754 5752 5750 5749 5748 5747 5747 5747 5746 5745 5745 5745 5745 5745 5744 5744 5743 5743 5741 5740 5739 5738 5738 5737 5736 5735 5734 5734
5768 5768 5768 5767 5766 5766 5765 5764 5763 5761 5760 5758 5755 5753 5751 5748 5746 5745 5744 5743 5742 5742 5741 5741 5740 5741 5740 5740 5740 5739 5739 5738 5737 5736 5735 5734 5733 5732 5731 5731 5730 5729 5728
5762 5762 5762 5761 5760 5760 5759 5758 5757 5755 5754 5752 5750 5747 5745 5743 5741 5740 5739 5738 5737 5737 5736 5736 5736 5735 5735 5734 5734 5734 5733 5733 5732 5732 5730 5729 5728 5727 5726 5725 5724 5723 5722
5755 5755 5755 5755 5754 5754 5753 5752 5750 5749 5747 5745 5744 5742 5739 5738 5736 5735 5734 5733 5732 5732 5731 5731 5731 5730 5730 5729 5729 5728 5728 5728 5728 5727 5726 5724 5723 5722 5721 5720 5719 5718 5717
5748 5748 5748 5748 5748 5747 5746 5745 5744 5743 5741 5739 5738 5736 5734 5732 5731 5730 5729 5728 5727 5727 5726 5726 5726 5725 5725 5724 5724 5723 5723 5723 5722 5722 5720 5719 5718 5717 5716 5715 5715 5714 5713
5742 5741 5741 5741 5741 5740 5739 5738 5737 5736 5735 5733 5731 5730 5728 5727 5726 5725 5724 5723 5722 5721 5721 5721 5721 5720 5720 5719 5719 5718 5718 5717 5717 5716 5715 5714 5713 5712 5711 5711 5710 5709 5708
5735 5735 5735 5734 5734 5733 5732 5732 5731 5729 5728 5727 5725 5724 5723 5721 5720 5719 5718 5718 5717 5716 5716 5716 5715 5715 5715 5714 5714 5713 5713 5712 5711 5710 5710 5709 5708 5707 5707 5706 5705 5704 5703
5728 5728 5728 5728 5727 5726 5725 5724 5724 5722 5721 5719 5719 5718 5716 5715 5714 5713 5712 5712 5711 5711 5710 5710 5710 5709 5709 5709 5708 5708 5707 5706 5706 5705 5704 5704 5703 5703 5702 5701 5701 5700 5699
5721 5721 5721 5721 5720 5719 5719 5717 5716 5715 5713 5712 5711 5710 5710 5709 5708 5707 5706 5706 5705 5705 5704 5704 5704 5703 5703 5703 5702 5702 5702 5701 5700 5700 5699 5699 5698 5698 5697 5697 5696 5696 5695
5714 5715 5714 5714 5713 5713 5712 5710 5709 5707 5706 5705 5704 5703 5702 5702 5701 5700 5699 5699 5698 5698 5698 5698 5698 5698 5697 5697 5696 5696 5696 5695 5695 5694 5694 5693 5693 5693 5692 5692 5691 5691 5690
5708 5708 5707 5707 5706 5705 5704 5703 5701 5700 5698 5697 5696 5695 5695 5694 5693 5693 5693 5692 5692 5692 5691 5691 5691 5691 5691 5690 5690 5690 5690 5689 5689 5688 5688 5688 5688 5687 5687 5687 5686 5686 5685
5701 5700 5700 5700 5699 5697 5696 5695 5693 5692 5691 5690 5689 5688 5687 5686 5686 5685 5685 5685 5685 5685 5684 5684 5684 5684 5684 5684 5683 5683 5683 5683 5683 5683 5682 5682 5682 5682 5682 5681 5681 5681 5680
5693 5693 5692 5691 5690 5689 5688 5687 5686 5684 5683 5682 5681 5680 5679 5679 5678 5678 5678 5677 5677 5677 5677 5677 5676 5676 5676 5676 5676 5676 5676 5676 5676 5676 5676 5676 5676 5676 5676 5676 5675 5675 5675
5686 5685 5685 5684 5683 5681 5680 5679 5677 5676 5675 5674 5673 5672 5672 5671 5671 5671 5670 5670 5670 5670 5670 5670 5669 5669 5669 5669 5669 5669 5669 5670 5670 5670 5670 5670 5670 5670 5670 5670 5670 5670 5670
5678 5677 5676 5675 5675 5674 5673 5671 5670 5669 5667 5666 5666 5665 5664 5664 5663 5663 5663 5662 5662 5662 5662 5662 5662 5662 5662 5662 5662 5662 5662 5662 5663 5663 5664 5664 5664 5664 5664 5664 5664 5664 5664
5670 5669 5668 5667 5667 5666 5665 5664 5663 5662 5661 5660 5659 5658 5657 5656 5656 5655 5655 5655 5654 5654 5654 5654 5655 5655 5655 5655 5655 5655 5655 5655 5655 5656 5656 5657 5657 5658 5658 5658 5658 5658 5659
5661 5661 5660 5659 5659 5658 5657 5656 5655 5654 5653 5652 5651 5650 5649 5649 5648 5648 5647 5647 5647 5647 5647 5647 5647 5648 5648 5648 5648 5648 5648 5648 5648 5648 5649 5649 5650 5651 5651 5652 5652 5652 5653
5653 5652 5652 5651 5650 5650 5649 5648 5647 5646 5646 5645 5644 5643 5642 5641 5640 5640 5640 5639 5639 5639 5639 5640 5640 5640 5640 5640 5641 5641 5641 5641 5642 5642 5642 5643 5644 5644 5645 5645 5645 5646 5646
5645 5644 5643 5643 5642 5642 5641 5640 5639 5639 5638 5637 5636 5635 5634 5634 5633 5632 5632 5631 5631 5631 5632 5632 5632 5633 5633 5633 5633 5634 5634 5634 5635 5635 5636 5636 5637 5637 5638 5638 5638 5639 5639
5636 5636 5635 5635 5635 5634 5633 5633 5632 5631 5630 5629 5628 5628 5627 5626 5625 5624 5624 5624 5624 5624 5624 5625 5625 5625 5626 5626 5626 5627 5627 5628 5628 5628 5629 5629 5630 5631 5631 5631 5632 5632 5633